Location: Campestrin
(46.4667°N, 11.7167°E)
Time: 06:08:11
(UTC+00:00)

Cosmos 2227 Rocket - Pass Details

Date: 18 April 2021
Orbit: 840 x 843 km, 71.0° (Epoch: 15 May)

Event Time Altitude Azimuth Distance (km) Brightness Sun altitude
Exits shadow 19:57:14 30° 128° (SE) 1,456 2.8 -17.8°
Maximum altitude 19:58:22 33° 105° (ESE) 1,380 2.8 -17.9°
Drops below altitude 10° 20:03:23 10° 43° (NE) 2,470 4.6 -18.6°
Sets 20:06:02 0° 34° (NE) 3,409 5.4 -18.9°
